Vorticity
10 8 7 7 6 6 6 16 15 15 13 16 15 7 12 11 17 14 10 8 9 10 14 15 19 22 32 19 -20 -1 26 15 11 9 8 12 12 8 8 4 5 6 13 7 10 1 5
13 11 8 6 6 2 15 14 17 30 19 9 11 18 12 12 16 10 15 8 7 14 12 18 25 15 27 20 -16 25 24 17 10 9 6 7 11 6 14 7 1 24 -1 6 12 4 7
13 11 8 6 5 14 15 10 15 19 20 11 11 10 19 26 12 14 7 7 8 7 13 14 14 18 33 -3 -27 -10 3 21 11 13 9 7 12 16 -8 16 20 -20 18 18 -1 5 8
12 11 7 5 8 15 12 9 17 17 16 11 11 10 16 11 8 17 10 9 13 10 11 13 14 23 32 6 46 -28 -4 13 12 10 13 12 10 14 9 11 31 13 4 3 22 12 5
6 11 6 4 13 13 5 11 10 20 8 14 17 19 2 16 19 19 4 -2 2 18 10 10 17 16 37 30 -2 -9 1 15 9 12 12 10 6 5 9 6 13 23 20 8 -2 7 18
10 12 5 6 19 9 7 7 12 13 12 11 12 18 10 18 16 17 10 5 11 15 22 14 28 13 35 18 14 -15 3 13 12 10 10 8 13 3 4 7 -7 14 -4 16 18 23 -4
6 11 4 7 17 9 8 8 13 16 11 14 20 28 28 18 9 8 1 4 27 14 12 19 33 12 20 31 12 6 3 32 7 8 5 6 1 4 4 11 -2 7 17 4 3 11 -5
8 12 3 8 14 9 8 6 13 16 20 19 26 27 22 27 12 5 5 8 21 21 24 30 -25 -16 17 30 20 32 -14 6 6 7 1 11 3 6 7 4 5 14 13 10 11 7 5
9 12 3 8 14 8 11 4 10 13 19 23 19 18 42 17 9 8 21 34 21 20 7 46 -30 21 14 27 41 -35 2 25 -2 14 12 -2 19 16 15 -1 -4 -6 -4 -1 -3 1 2
6 13 1 7 15 10 2 7 8 19 10 26 34 17 11 11 19 27 24 21 20 -7 19 45 -8 20 -0 7 1 8 -23 -10 39 46 10 -6 23 8 7 10 8 10 8 6 4 14 8
9 5 7 5 12 9 8 11 5 10 10 8 25 38 30 26 27 34 24 2 -7 -4 5 -11 22 38 2 -8 37 3 4 6 2 19 -10 12 32 16 -9 13 7 11 1 9 10 5 8
12 11 17 3 10 7 10 5 9 6 14 9 13 20 15 15 11 20 -0 -38 23 8 0 14 35 30 -24 12 39 9 7 25 15 8 15 25 12 29 -7 5 12 2 8 2 4 6 14
4 7 15 3 7 10 8 11 5 7 2 9 12 7 13 -8 -3 -17 10 22 -6 18 -5 29 12 -1 3 21 21 0 19 1 9 -1 19 6 9 11 23 22 19 1 4 9 8 9 6
7 11 7 19 4 13 5 8 8 7 8 7 12 7 -14 -7 1 5 10 10 9 28 53 17 8 13 -9 18 10 -23 10 3 9 32 -16 8 3 -3 12 -0 18 2 -7 2 9 9 6
9 17 6 15 1 8 14 4 5 6 11 13 17 2 4 -4 7 17 15 11 14 -2 9 7 1 0 10 -1 9 4 -9 1 3 2 6 6 28 -3 2 -0 4 20 3 7 0 8 8
9 15 11 9 22 2 12 5 4 8 11 11 11 28 8 6 -8 12 30 24 29 13 17 -11 -0 4 16 3 14 2 5 13 4 6 -2 20 9 6 15 6 11 0 21 11 10 6 6
12 11 14 8 17 4 6 14 4 1 7 9 13 9 19 22 23 21 2 31 5 2 -2 -8 8 22 10 14 9 -2 6 26 4 15 2 9 4 26 4 9 10 1 -4 5 10 3 8
5 14 10 9 11 27 -1 7 18 2 5 5 14 13 11 16 20 24 6 -10 -0 9 4 5 18 18 10 6 10 -1 5 2 15 3 8 7 11 8 6 9 18 9 11 7 -6 20 4
4 13 8 7 6 10 25 4 8 16 7 7 2 2 6 8 14 11 8 19 3 2 3 2 2 10 19 21 10 7 2 7 1 11 10 15 13 6 14 13 10 12 11 9 -5 1 7
4 9 6 11 6 9 15 1 9 10 15 2 1 12 1 0 4 9 7 5 8 7 12 14 7 9 9 13 -10 30 2 1 3 19 -0 5 5 2 10 8 21 12 19 16 2 12 7
10 2 7 10 8 11 12 34 0 10 8 20 1 9 4 4 3 -3 9 17 3 10 -3 25 14 14 19 13 8 8 24 2 8 9 22 -4 7 8 6 -2 -8 -6 0 21 11 -8 -8
11 8 8 9 6 11 16 19 5 11 11 15 17 5 9 4 13 7 12 11 11 9 10 26 12 8 13 -7 10 7 20 12 -8 14 18 -3 -4 15 15 14 11 9 10 7 4 18 14
8 10 9 7 8 17 15 24 32 7 9 9 19 18 8 10 11 10 4 5 5 9 16 12 14 2 13 18 2 24 24 15 6 7 25 9 10 10 17 9 12 35 51 25 10 7 7
9 11 10 11 11 13 19 25 22 -1 11 6 10 13 22 14 14 7 -0 8 5 5 18 -4 1 -1 9 9 14 15 10 4 6 15 14 11 -3 -1 9 11 15 16 2 9 35 34 25
13 13 14 15 18 11 17 18 15 17 -3 9 8 7 9 18 17 10 7 6 7 4 4 11 5 6 6 8 6 4 5 22 1 6 8 17 5 1 -0 7 -8 20 19 1 13 25 24
18 12 17 13 15 14 15 17 42 8 6 1 9 9 6 9 19 14 22 11 8 7 5 4 12 6 6 6 4 11 6 0 20 14 9 10 12 -8 16 7 4 17 23 5 9 -7 -5
3 10 6 20 21 18 17 11 10 49 -0 7 2 9 8 6 16 13 8 13 20 12 5 15 3 10 9 8 4 8 6 6 6 6 37 8 9 -0 1 -3 17 10 -2 4 8 15 2
-7 7 16 22 17 14 10 9 15 5 8 42 -6 -9 -3 1 -4 6 8 8 5 15 5 8 17 12 3 4 8 9 14 5 10 1 11 11 1 25 21 5 19 22 16 -5 13 -0 9
-1 15 19 16 8 4 2 5 11 8 5 8 22 24 25 12 -7 -7 -9 -8 -7 1 13 8 -10 16 2 15 8 22 7 6 5 0 19 13 -22 11 -14 28 1 21 22 2 7 4 8
Height
3100 3093 3086 3080 3073 3064 3055 3045 3037 3029 3022 3017 3012 3007 3003 3000 2999 2997 2998 2998 2998 2998 2999 3000 3001 3004 3009 3018 3024 3032 3033 3040 3046 3052 3059 3064 3069 3074 3080 3086 3091 3094 3099 3105 3112 3116 3117
3096 3089 3082 3075 3067 3059 3049 3040 3031 3023 3017 3012 3006 3002 2998 2995 2993 2993 2994 2994 2993 2993 2994 2995 2996 2998 3003 3011 3022 3027 3029 3034 3041 3048 3054 3061 3066 3073 3079 3083 3089 3092 3098 3103 3108 3111 3113
3093 3085 3079 3073 3063 3054 3046 3034 3025 3018 3011 3007 3002 2997 2993 2990 2989 2989 2990 2990 2990 2990 2990 2990 2991 2993 2997 3008 3017 3023 3026 3032 3040 3047 3052 3059 3065 3071 3075 3081 3087 3090 3095 3099 3102 3106 3108
3091 3082 3077 3069 3060 3051 3041 3031 3021 3013 3008 3003 2997 2992 2988 2986 2985 2985 2987 2986 2986 2986 2987 2986 2988 2989 2991 3007 3014 3015 3026 3032 3037 3045 3052 3059 3064 3069 3074 3078 3083 3087 3092 3095 3097 3100 3103
3088 3079 3073 3066 3057 3048 3039 3027 3017 3011 3006 2998 2992 2987 2984 2982 2980 2981 2983 2983 2983 2982 2982 2983 2985 2987 2993 3004 3011 3017 3024 3031 3037 3044 3052 3058 3063 3066 3071 3076 3080 3084 3084 3088 3093 3095 3099
3087 3078 3071 3064 3055 3046 3036 3026 3016 3010 3003 2994 2987 2982 2979 2978 2977 2978 2979 2980 2979 2979 2979 2981 2984 2991 2995 3002 3012 3018 3025 3030 3035 3042 3050 3054 3059 3063 3068 3071 3072 3075 3081 3085 3089 3093 3094
3085 3077 3070 3063 3054 3044 3035 3026 3017 3008 3000 2990 2982 2976 2974 2974 2975 2976 2977 2977 2978 2978 2978 2980 2985 2990 2996 3002 3010 3018 3025 3029 3034 3039 3044 3049 3052 3054 3063 3069 3072 3077 3080 3083 3087 3090 3091
3084 3077 3070 3062 3053 3044 3037 3028 3019 3008 2998 2988 2981 2975 2971 2971 2973 2974 2974 2974 2974 2976 2979 2981 2984 2990 2997 3002 3010 3018 3022 3028 3030 3030 3040 3048 3051 3059 3065 3069 3072 3075 3078 3082 3085 3086 3088
3083 3074 3069 3063 3054 3045 3038 3030 3022 3012 2999 2988 2981 2975 2972 2972 2973 2974 2972 2973 2974 2977 2981 2985 2989 2993 3000 3006 3012 3017 3017 3024 3027 3033 3040 3047 3054 3058 3063 3067 3070 3074 3077 3080 3084 3084 3086
3081 3074 3067 3061 3055 3048 3039 3032 3027 3016 3005 2994 2986 2979 2976 2975 2976 2974 2975 2976 2979 2982 2987 2994 2996 3000 3004 3008 3012 3016 3017 3021 3025 3032 3039 3048 3052 3056 3060 3065 3069 3072 3077 3080 3081 3084 3084
3081 3074 3068 3061 3055 3050 3043 3035 3030 3022 3012 3003 2993 2985 2981 2977 2978 2979 2983 2985 2985 2988 2992 3002 3001 3002 3005 3011 3014 3019 3022 3026 3032 3033 3042 3046 3049 3049 3059 3063 3068 3072 3076 3079 3080 3081 3082
3080 3073 3067 3061 3056 3050 3046 3038 3034 3027 3021 3011 3004 2999 2992 2989 2988 2990 2991 2991 2990 2993 2996 3002 3004 3007 3010 3013 3016 3022 3027 3032 3035 3038 3041 3043 3049 3052 3056 3061 3065 3069 3073 3077 3078 3080 3080
3079 3073 3067 3062 3056 3051 3047 3041 3037 3032 3026 3020 3014 3010 3006 3002 3000 2999 2996 2994 2995 2998 3007 3011 3011 3013 3016 3018 3021 3026 3028 3032 3037 3040 3043 3047 3051 3053 3055 3057 3062 3067 3072 3076 3080 3079 3077
3076 3071 3066 3062 3057 3052 3048 3044 3039 3035 3031 3027 3022 3016 3012 3008 3006 3002 3001 3001 3001 3008 3009 3013 3016 3018 3020 3023 3026 3029 3032 3036 3038 3041 3045 3049 3056 3055 3057 3060 3062 3066 3070 3071 3072 3075 3074
3074 3070 3064 3060 3057 3052 3049 3046 3041 3037 3032 3029 3026 3021 3016 3013 3011 3007 3005 3002 3012 3014 3016 3017 3021 3022 3024 3026 3028 3030 3034 3037 3040 3042 3047 3049 3053 3056 3058 3060 3064 3065 3067 3070 3071 3073 3073
3072 3068 3063 3058 3056 3053 3049 3046 3043 3039 3034 3030 3027 3024 3021 3017 3015 3012 3011 3009 3015 3018 3020 3022 3023 3024 3025 3027 3030 3032 3034 3038 3041 3043 3046 3048 3052 3056 3057 3059 3062 3062 3065 3068 3068 3072 3071
3070 3067 3062 3057 3053 3051 3048 3045 3042 3039 3037 3032 3029 3025 3023 3020 3018 3016 3013 3016 3019 3021 3023 3025 3024 3023 3025 3027 3030 3033 3037 3038 3039 3042 3046 3048 3050 3056 3057 3057 3059 3061 3061 3063 3067 3067 3067
3068 3064 3060 3055 3052 3048 3046 3044 3041 3039 3037 3034 3030 3028 3025 3022 3021 3018 3020 3021 3022 3024 3025 3025 3025 3025 3026 3028 3030 3033 3036 3038 3039 3042 3045 3047 3049 3051 3054 3055 3056 3057 3059 3062 3065 3066 3064
3064 3060 3056 3052 3047 3045 3042 3041 3039 3037 3036 3034 3031 3030 3027 3026 3023 3024 3024 3024 3025 3026 3026 3026 3026 3027 3027 3029 3032 3034 3036 3038 3040 3042 3044 3046 3048 3050 3053 3056 3054 3054 3055 3059 3061 3062 3061
3060 3055 3051 3048 3044 3040 3038 3037 3035 3034 3033 3033 3032 3030 3029 3028 3027 3027 3027 3027 3027 3026 3026 3026 3026 3027 3028 3029 3031 3032 3034 3037 3039 3040 3042 3045 3046 3047 3049 3049 3049 3050 3052 3054 3057 3058 3056
3054 3050 3046 3043 3040 3036 3033 3032 3032 3030 3029 3030 3030 3028 3028 3027 3027 3027 3027 3027 3027 3027 3026 3025 3025 3026 3028 3029 3030 3031 3032 3035 3037 3038 3040 3043 3044 3046 3047 3048 3048 3049 3049 3050 3050 3052 3053
3049 3045 3041 3038 3035 3032 3027 3025 3026 3026 3025 3026 3025 3025 3025 3025 3024 3025 3026 3026 3026 3026 3025 3023 3024 3026 3028 3030 3031 3031 3032 3034 3035 3037 3038 3040 3043 3044 3045 3045 3044 3043 3044 3045 3046 3047 3048
3043 3040 3035 3032 3028 3026 3022 3020 3021 3022 3022 3022 3021 3020 3021 3021 3022 3023 3024 3024 3025 3026 3026 3025 3025 3027 3029 3030 3030 3030 3031 3034 3035 3036 3037 3040 3043 3044 3044 3043 3043 3040 3035 3037 3039 3041 3045
3037 3034 3030 3027 3024 3021 3019 3016 3016 3018 3018 3018 3019 3018 3017 3018 3019 3020 3021 3022 3023 3024 3025 3026 3026 3027 3029 3029 3030 3031 3032 3034 3035 3036 3038 3040 3042 3044 3043 3043 3043 3035 3034 3035 3035 3037 3039
3033 3029 3025 3022 3020 3016 3015 3013 3013 3014 3015 3014 3014 3016 3015 3014 3015 3016 3017 3019 3020 3022 3023 3024 3026 3027 3028 3029 3030 3031 3033 3035 3035 3035 3037 3038 3040 3041 3041 3040 3035 3032 3033 3035 3035 3037 3036
3029 3026 3022 3018 3016 3013 3011 3011 3010 3010 3010 3011 3010 3011 3012 3011 3011 3012 3013 3014 3015 3017 3020 3021 3023 3024 3025 3027 3029 3029 3030 3031 3032 3033 3034 3036 3037 3040 3039 3039 3035 3031 3031 3032 3034 3035 3035
3027 3023 3019 3016 3012 3010 3009 3008 3007 3007 3006 3006 3006 3006 3007 3007 3007 3007 3009 3010 3010 3012 3014 3016 3018 3020 3022 3022 3025 3026 3026 3027 3027 3027 3029 3032 3034 3035 3037 3036 3030 3029 3030 3031 3033 3037 3032
3023 3020 3017 3013 3011 3009 3008 3006 3004 3002 3001 3002 3002 3001 3002 3002 3002 3001 3002 3003 3003 3005 3007 3010 3014 3013 3016 3018 3019 3020 3021 3022 3023 3023 3024 3026 3029 3030 3032 3034 3028 3025 3028 3030 3030 3030 3030
3021 3017 3014 3012 3009 3007 3005 3003 3001 2999 2996 2995 2995 2993 2992 2992 2995 2995 2994 2993 2995 2996 2998 3001 3004 3006 3010 3012 3013 3014 3014 3015 3017 3019 3020 3023 3023 3023 3025 3023 3023 3023 3025 3026 3027 3027 3027